OBJECT J, 62385

Orbit data source: Space-Track

You're viewing an Uncataloged Satellite

Recently launched and/or uncataloged satellites may have evolving metadata. Metadata may include but not limited to: Owner, Maufacturer, Bus, Motor, and Mission.

OBJECT J, 62385 is a satellite in LEO that was launched on Sat, 21 Dec 2024 UTC via an FALCON 9 launch vehicle from the Air Force Western Test Range (AFWTR). Unknown objects in Earth's orbit typically refer to objects detected orbiting the Earth but have not yet been identified or cataloged. These objects could be anything from previously untracked satellites, spent rocket stages, debris from satellite collisions, or even natural meteoroids temporarily captured by Earth's gravity.

Loading next visibility...
Identifier
62385, 2024-247J
Orbit
LEO
Last TLE update
1 day ago
Origin
Flag of TBDONDO (TBD)
Manufacturer
ONDO Space
Mission
Operational Commercial Communications
Bus & Motor
CUBESAT 0.5U, Unknown motor
Mass
0.25 kg wet, 0.25 kg dry
Launch date (UTC)
2024-12-21 (5 months ago)
Launch vehicle
FALCON 9
Launch site
Air Force Western Test Range (AFWTR)
Object type
Unknown
Shape & HBR
Box, 0.05 m
Radar Cross Section
0.004 m², Small (<0.1 m²)

Expand to show TLE details & history

TLE from 1 day ago
0 OBJECT J
1 62385U 24247J   25128.28923128  .00017497  00000-0  66254-3 0  9990
2 62385  45.0076 334.0734 0003636 279.0327  81.0144 15.26739042 21156
Epoch: 2025-05-08T06:56Z
Definitive object data (Epoch: 2025-05-08T06:56:29.582Z)
Latitude
-0.00004°
Longitude
3.58824°
Altitude
485.179 km
Speed
7.625 km/s
True Right ascension
22h 16m 17s
True Declination
0° 00' 00"
Sunlit
Object was in daylight at TLE epoch
Visualization TLE readout
Latitude
14.469°
Longitude
11.29593°
Altitude
484.873 km
Speed
7.626 km/s
Apparent Right ascension
23h 16m 56s
Apparent Declination
-53° 13' 55"
Sunlit
Object is in daylight
Visualization observer readout
Local Sidereal Time
22:36:23
Azimuth
173.94° S
Elevation
-3.559°
Doppler factor
1
Orbital elements
Apogee altitude
489.672 km
Perigee altitude
484.68 km
Semi-major axis
6,865.313 km
Eccentricity
0.0003636
Inclination
45.0076°
RAAN
334.0734°
Arg. of periapsis
279.0327°
True anomaly
81.05556°
Mean anomaly
81.0144°
Eccentric anomaly
81.03498°
Mean motion
3.81551 °/min
BSTAR
0.00066254
Orbital period
94.35 mins
Loading maneuver chart data...
Loading SW <> Apogee altitude chart data...
Loading historical data...
Loading historical data...
Loading historical data...
Loading historical data...
Loading historical data...
Loading historical data...
Loading historical data...

OBJECT J Visibility forecast

Observer location: undefined°, undefined°

Span
Click to sort rows by Start time (UTC) header in descending order
Start Az.
Max El. time (UTC)
Max El. Az.
Max El.
End time (UTC)
End Az.
5 mins2025-05-09 16:06:14.341Z199.757° SSW2025-05-09 16:09:14.341Z133.712° SE25.324°2025-05-09 16:11:14.341Z92.344° ESE
6 mins2025-05-09 17:45:14.341Z262.528° W2025-05-09 17:47:14.341Z308.367° NW41.25°2025-05-09 17:51:14.341Z63.433° ENE
5 mins2025-05-09 19:25:14.341Z311.36° NW2025-05-09 19:27:14.341Z17.24° NNE29.91°2025-05-09 19:30:14.341Z67.695° E
5 mins2025-05-09 21:04:14.341Z308.13° NW2025-05-09 21:06:14.341Z35.366° NE39.961°2025-05-09 21:09:14.341Z96.285° ESE
4 mins2025-05-09 22:43:14.341Z258.907° W2025-05-09 22:45:14.341Z196.592° SSW28.445°2025-05-09 22:47:14.341Z155.737° SSE
|